TimeMDT,TemperatureF,Dew PointF,Humidity,Sea Level PressureIn,VisibilityMPH,Wind Direction,Wind SpeedMPH,Gust SpeedMPH,PrecipitationIn,Events,Conditions,WindDirDegrees,DateUTC
12:53 AM,46.0,39.9,79,30.10,10.0,Calm,Calm,-,N/A,,Overcast,0,2012-10-28 06:53:00
1:53 AM,46.0,41.0,83,30.10,10.0,Calm,Calm,-,0.00,,Overcast,0,2012-10-28 07:53:00
2:53 AM,46.0,41.0,83,30.09,10.0,Calm,Calm,-,N/A,,Overcast,0,2012-10-28 08:53:00
3:53 AM,45.0,41.0,86,30.09,9.0,Calm,Calm,-,N/A,,Overcast,0,2012-10-28 09:53:00
4:53 AM,44.1,41.0,89,30.09,8.0,Calm,Calm,-,N/A,,Overcast,0,2012-10-28 10:53:00
5:53 AM,45.0,41.0,86,30.10,8.0,Calm,Calm,-,N/A,,Overcast,0,2012-10-28 11:53:00
6:53 AM,44.1,41.0,89,30.09,6.0,Calm,Calm,-,0.00,,Mostly Cloudy,0,2012-10-28 12:53:00
7:53 AM,43.0,41.0,93,30.09,5.0,WSW,4.6,-,N/A,,Overcast,250,2012-10-28 13:53:00
8:53 AM,45.0,42.1,90,30.09,4.0,NE,3.5,-,0.00,,Overcast,50,2012-10-28 14:53:00
9:53 AM,46.0,43.0,89,30.09,4.0,NNW,4.6,-,0.01,,Overcast,330,2012-10-28 15:53:00
10:53 AM,46.9,43.0,86,30.11,6.0,Calm,Calm,-,0.00,,Overcast,0,2012-10-28 16:53:00
11:53 AM,48.9,45.0,86,30.10,5.0,North,4.6,-,0.00,Rain,Light Rain,10,2012-10-28 17:53:00
12:53 PM,51.1,46.9,86,30.09,6.0,East,3.5,-,0.02,Rain,Light Rain,100,2012-10-28 18:53:00
1:53 PM,54.0,50.0,86,30.05,8.0,ENE,6.9,-,0.00,,Overcast,70,2012-10-28 19:53:00
2:53 PM,59.0,51.1,75,30.02,10.0,Calm,Calm,-,N/A,,Overcast,0,2012-10-28 20:53:00
3:53 PM,61.0,52.0,72,30.01,10.0,NNW,5.8,-,N/A,,Overcast,340,2012-10-28 21:53:00
4:53 PM,57.0,52.0,83,30.01,6.0,NNW,5.8,-,N/A,,Haze,340,2012-10-28 22:53:00
5:53 PM,53.1,50.0,89,30.02,4.0,WNW,6.9,-,N/A,,Overcast,300,2012-10-28 23:53:00
6:16 PM,53.6,48.2,82,30.02,9.0,NW,3.5,-,N/A,,Overcast,310,2012-10-29 00:16:00
6:53 PM,52.0,48.0,86,30.02,9.0,West,4.6,-,N/A,,Overcast,280,2012-10-29 00:53:00
7:53 PM,50.0,48.0,93,30.03,6.0,WNW,5.8,-,N/A,,Overcast,300,2012-10-29 01:53:00
8:53 PM,50.0,46.9,89,30.03,5.0,Calm,Calm,-,N/A,,Overcast,0,2012-10-29 02:53:00
9:34 PM,48.2,46.4,93,30.03,5.0,WSW,3.5,-,N/A,,Overcast,250,2012-10-29 03:34:00
9:53 PM,48.0,46.0,93,30.03,4.0,Calm,Calm,-,N/A,,Overcast,0,2012-10-29 03:53:00
10:04 PM,48.2,46.4,93,30.03,4.0,Calm,Calm,-,N/A,,Overcast,0,2012-10-29 04:04:00
10:12 PM,48.2,46.4,93,30.03,2.5,Calm,Calm,-,N/A,,Overcast,0,2012-10-29 04:12:00
10:26 PM,48.2,46.4,93,30.03,1.2,WSW,3.5,-,N/A,,Overcast,250,2012-10-29 04:26:00
10:36 PM,48.2,46.4,93,30.03,0.5,West,3.5,-,N/A,Fog,Fog,260,2012-10-29 04:36:00
10:53 PM,48.0,46.9,96,30.03,0.5,Calm,Calm,-,N/A,Fog,Fog,0,2012-10-29 04:53:00
11:19 PM,48.2,46.4,93,30.03,0.2,West,3.5,-,N/A,Fog,Fog,270,2012-10-29 05:19:00
11:34 PM,48.2,46.4,93,30.02,0.2,Calm,Calm,-,N/A,Fog,Fog,0,2012-10-29 05:34:00
11:53 PM,48.0,46.9,96,30.03,0.2,NW,4.6,-,N/A,Fog,Fog,310,2012-10-29 05:53:00